TimeEST,TemperatureF,Dew PointF,Humidity,Sea Level PressureIn,VisibilityMPH,Wind Direction,Wind SpeedMPH,Gust SpeedMPH,PrecipitationIn,Events,Conditions,WindDirDegrees,DateUTC
12:51 AM,48.0,46.9,96,30.11,4.0,SSW,6.9,-,N/A,,Overcast,210,2012-12-03 05:51:00
1:51 AM,48.9,46.9,93,30.12,4.0,SW,5.8,-,N/A,,Overcast,220,2012-12-03 06:51:00
2:51 AM,48.0,46.9,96,30.12,4.0,SW,8.1,-,N/A,,Scattered Clouds,230,2012-12-03 07:51:00
3:51 AM,48.0,46.9,96,30.12,4.0,SW,6.9,-,N/A,,Overcast,230,2012-12-03 08:51:00
4:51 AM,48.0,46.0,93,30.14,4.0,SW,3.5,-,N/A,,Mostly Cloudy,220,2012-12-03 09:51:00
5:51 AM,45.0,44.1,97,30.15,4.0,SW,8.1,-,N/A,,Partly Cloudy,220,2012-12-03 10:51:00
6:51 AM,44.1,44.1,100,30.17,4.0,SW,4.6,-,N/A,,Scattered Clouds,230,2012-12-03 11:51:00
7:51 AM,46.0,44.1,93,30.19,4.0,SSW,3.5,-,N/A,,Scattered Clouds,210,2012-12-03 12:51:00
8:51 AM,51.1,48.0,89,30.21,4.0,SSW,5.8,-,N/A,,Mostly Cloudy,210,2012-12-03 13:51:00
9:51 AM,55.0,48.9,80,30.22,5.0,WSW,4.6,-,N/A,,Haze,240,2012-12-03 14:51:00
10:51 AM,59.0,50.0,72,30.21,7.0,WSW,5.8,-,N/A,,Mostly Cloudy,240,2012-12-03 15:51:00
11:51 AM,62.1,48.0,60,30.19,10.0,NW,11.5,-,N/A,,Mostly Cloudy,320,2012-12-03 16:51:00
12:51 PM,62.1,46.0,56,30.18,10.0,NNW,10.4,-,N/A,,Mostly Cloudy,330,2012-12-03 17:51:00
1:51 PM,64.0,46.0,52,30.17,10.0,WNW,5.8,-,N/A,,Mostly Cloudy,290,2012-12-03 18:51:00
2:51 PM,63.0,45.0,52,30.18,10.0,West,6.9,-,N/A,,Mostly Cloudy,260,2012-12-03 19:51:00
3:51 PM,62.1,46.9,58,30.19,10.0,West,9.2,-,N/A,,Mostly Cloudy,280,2012-12-03 20:51:00
4:51 PM,60.1,46.0,60,30.20,10.0,NW,5.8,-,N/A,,Mostly Cloudy,310,2012-12-03 21:51:00
5:51 PM,59.0,46.0,62,30.23,10.0,WNW,3.5,-,N/A,,Mostly Cloudy,290,2012-12-03 22:51:00
6:51 PM,57.0,46.0,67,30.25,10.0,Calm,Calm,-,N/A,,Scattered Clouds,0,2012-12-03 23:51:00
7:51 PM,52.0,45.0,77,30.25,10.0,NNE,5.8,-,N/A,,Scattered Clouds,20,2012-12-04 00:51:00
8:51 PM,53.6,44.6,72,30.26,10.0,NNE,3.5,-,N/A,,Mostly Cloudy,30,2012-12-04 01:51:00
9:51 PM,51.1,43.0,74,30.26,8.0,NE,4.6,-,N/A,,Mostly Cloudy,40,2012-12-04 02:51:00
10:51 PM,48.0,42.1,80,30.26,10.0,NNE,4.6,-,N/A,,Scattered Clouds,30,2012-12-04 03:51:00
11:51 PM,46.9,43.0,86,30.26,10.0,North,4.6,-,N/A,,Scattered Clouds,10,2012-12-04 04:51:00